Regional Weather Roundup
Issued by NWS Mobile, AL

Home | Current Version | Previous Version | Text Only | Print | Product List | Glossary On
Versions: 1 2 3 4 5 6 7 8 9 10 11 12 13 14 15 16 17 18 19 20 21 22 23 24 25 26 27 28 29 30 31 32 33 34 35 36 37 38 39 40 41 42 43 44 45 46 47 48 49 50
000
ASUS44 KMOB 270916
RWRMOB
REGIONAL WEATHER ROUNDUP
NATIONAL WEATHER SERVICE MOBILE AL
400 AM CDT MON APR 27 2015

ALZ061>064-271000-
COASTAL ALABAMA


CITY           SKY/WX    TMP DP  RH WIND       PRES   REMARKS
MOBILE REG APT CLOUDY    70  70 100 N9        29.75R FOG
BROOKLEY FIELD CLOUDY    72  70  93 N9        29.74R FOG
GULF SHORES    CLOUDY    70  70 100 CALM      29.71S FOG

$$

ALZ051>060-271000-
INTERIOR SOUTHWEST AND SOUTH CENTRAL ALABAMA


CITY           SKY/WX    TMP DP  RH WIND       PRES   REMARKS
ANDALUSIA/OPP  CLOUDY    69  60  73 E5        29.76R
EVERGREEN      MOCLDY    64  60  87 N3        29.78R
FLORALA        CLOUDY    66  62  87 NE6       29.77R
GREENVILLE     FAIR      62  56  80 N5        29.79R

$$

FLZ001>006-271000-
WESTERN FLORIDA PANHANDLE


CITY           SKY/WX    TMP DP  RH WIND       PRES   REMARKS
CRESTVIEW      CLOUDY    68  67  96 N3        29.75R FOG
DESTIN         CLOUDY    74  71  91 N6        29.71S
DUKE FIELD     FOG       69  68  97 N5        29.73R VSB 1/4
MARY ESTHER    CLOUDY    71  67  87 N5        29.71R
MILTON         CLOUDY    72  70  93 N8        29.74R FOG
PENSACOLA      CLOUDY    72  70  93 N7        29.71R
NAS PENSACOLA  CLOUDY    72  71  97 CALM      29.71R FOG
VALPARAISO     CLOUDY    71  70  96 N5        29.71S FOG

$$

...MARINE OBSERVATIONS...

STATION/POSITION TIME  SKY/WX   TEMP    WIND        PRES    VSBY
                                AIR SEA DIR/SP/G
                 (UTC)          (F)     (DEG/KT/KT) (MB)    (MI)
PASCAGOULA       0800            74      CALM  /  1 1005.7F
PETIT BOIS ISL   0800            77     180/  5/  5 1006.3F
E DAUPHIN ISLAND 0900            75      CALM  /  1 1006.0R
MIDDLE BAY LIGHT 0800            71      20/  5     1005.4F
USCG MOBILE BAY  0800            73 75  330/  3/  5 1004.9F
STATE DOCKS      0800            72 70              1005.7F
MEAHER PARK      0900            71     350/  5     1006.8R
FORT MORGAN      0800            75      20/  2/  2 1005.4F
12 S ORANGE BCH  0850            75 75  190/  4/  4 1005.6R
WVE H/P(F/S)=  2/ 6

PENSACOLA BAY    0800            76 78  330/  3/  4 1006.1F
64 S DAUPHIN ISL 0850            77 77  140/  4/  4 1006.6R
WVE H/P(F/S)=  2/ 7

67 S FORT MORGAN 0830            76                 1006.4R
115 SE PENSACOLA 0850            76 76  200/  8/ 10 1006.3F
WVE H/P(F/S)=  3/ 6

MID GULF/42001   0850            80 81  140/ 16/ 17 1005.0F
WVE H/P(F/S)=  4/ 4

EAST GULF/42003  0850            80 79  190/ 12/ 16 1006.3F
WVE H/P(F/S)=  3/ 6


$$

...NEARBY LOCATIONS

CITY           SKY/WX    TMP DP  RH WIND       PRES   REMARKS
GULFPORT       FOG       72  71  97 CALM      29.71R VSB 1/4
BILOXI         FOG       72  72 100 NE2       29.72R VSB 1/2
PASCAGOULA     FOG       70  70 100 N5        29.72R VSB 1/4
HATTIESBURG    MOCLDY    65  63  93 CALM      29.77S
LAUREL         MOCLDY    64  36  34 NE8       29.78S
MERIDIAN       MOCLDY    60  54  80 N13       29.83R
MERIDIAN NAS   MOCLDY    59  53  80 N8        29.85R
MONTGOMERY     PTCLDY    61  53  75 N7        29.81R
MAXWELL AFB    PTCLDY    59  54  82 N7        29.80R
TROY           MOCLDY    63  58  83 N7        29.79R
FORT RUCKER    CLOUDY    65  60  84 NE3       29.75R
DALEVILLE      CLOUDY    66  58  75 NE9       29.75R
DOTHAN         CLOUDY    65  60  84 NE3       29.80R

$$

...OTHER SURROUNDING LOCATIONS...

CITY           SKY/WX    TMP DP  RH WIND       PRES   REMARKS
BIRMINGHAM     CLEAR     50  48  93 CALM      29.87R
TUSCALOOSA     PTCLDY    55  49  80 N7        29.87R
COLUMBUS GA    PTCLDY    59  51  75 NE9       29.78R
PANAMA CITY    NOT AVBL
TALLAHASSEE    CLOUDY    71  68  90 CALM      29.73S
BATON ROUGE    CLOUDY    71  69  93 N3        29.71R FOG
NEW ORLEANS    CLOUDY    74  71  91 NE6       29.69R
SLIDELL        FOG       71  71 100 CALM      29.70R VSB 1/4
JACKSON        CLOUDY    63  56  78 NE10      29.81R
MCCOMB         MOCLDY    68  64  87 NE6       29.75R

$$

...SURROUNDING MARINE OBSERVATIONS...

STATION/POSITION TIME  SKY/WX   TEMP    WIND        PRES    VSBY
                                AIR SEA DIR/SP/G
                 (UTC)          (F)     (DEG/KT/KT) (MB)    (MI)
WAVELAND         0800            75 75   80/  4/  4 1005.8F
PASCAGOULA RGN A 0800            73      40/  2/  3 1005.4F
PASCAGOULA PORT  0800               76                N/A
GRAND ISLE       0800            77 78   80/  8/ 11 1004.8F
SOUTHWEST PASS   0900            74      70/ 15/ 16 1004.4F
PILOT STATION E  0800            73 66  100/ 15/ 15 1005.0F
SHELL BEACH      0812            76 78   70/  6/  7 1004.7F
PANAMA CITY      0800            75 78  280/  2/  4 1005.9F
APALACHICOLA     0800            76 73  280/  2/  5 1006.7R
TYNDALL TOWER C  0900            76     250/ 12/ 13 1006.7F
S APLCHCLA/42036 0850            77 77  280/ 10/ 14 1007.4F
WVE H/P(F/S)=  3/ 7


$$




USA.gov is the U.S. government's official web portal to all federal, state and local government web resources and services.